• In Uzbekistan
  • List of Countries
  • For 7 days
  • Water Temperature
  • Satellite Maps
  • Weather Map
  • Weather Widgets
  • user-avatar
    Login

    Hourly Weather Edinburgh

    Today, 20 September, Thursday

    Time Temperature Precipitation Wind Pressure Humidity
    00:00 +7°C° 0 mm 8 mps 749 mmHg 81%
    01:00 +7°C° 0.2 mm 8 mps 749 mmHg 82%
    02:00 +8°C° 0.2 mm 7 mps 750 mmHg 83%
    03:00 +8°C° 0.2 mm 7 mps 750 mmHg 84%
    04:00 +8°C° 0.1 mm 7 mps 750 mmHg 84%
    05:00 +8°C° 0.1 mm 6 mps 750 mmHg 85%
    06:00 +7°C° 0 mm 6 mps 750 mmHg 86%
    07:00 +8°C° 0 mm 6 mps 751 mmHg 83%
    08:00 +9°C° 0 mm 7 mps 751 mmHg 80%
    09:00 +10°C° 0 mm 7 mps 751 mmHg 77%
    10:00 +11°C° 0 mm 7 mps 751 mmHg 74%
    11:00 +11°C° 0 mm 6 mps 751 mmHg 71%
    12:00 +13°C° 0 mm 6 mps 751 mmHg 68%
    13:00 +12°C° 0 mm 5 mps 750 mmHg 70%
    14:00 +12°C° 0 mm 4 mps 749 mmHg 71%
    15:00 +12°C° 0 mm 3 mps 749 mmHg 73%
    16:00 +12°C° 0.1 mm 2 mps 748 mmHg 77%
    17:00 +11°C° 0.1 mm 1 mps 747 mmHg 81%
    18:00 +10°C° 0.1 mm 0 mps 747 mmHg 85%
    19:00 +10°C° 0.7 mm 1 mps 746 mmHg 87%
    20:00 +10°C° 0.7 mm 1 mps 746 mmHg 89%
    21:00 +9°C° 0.7 mm 1 mps 745 mmHg 91%
    22:00 +9°C° 1 mm 1 mps 745 mmHg 92%
    23:00 +8°C° 1 mm 2 mps 744 mmHg 92%

    Tomorrow, 21 September, Friday

    Time Temperature Precipitation Wind Pressure Humidity
    00:00 +7°C° 1 mm 2 mps 744 mmHg 92%
    01:00 +7°C° 0.3 mm 2 mps 744 mmHg 92%
    02:00 +7°C° 0.3 mm 3 mps 744 mmHg 92%
    03:00 +6°C° 0.3 mm 4 mps 744 mmHg 91%
    04:00 +6°C° 0 mm 4 mps 744 mmHg 91%
    05:00 +7°C° 0 mm 4 mps 744 mmHg 90%
    06:00 +7°C° 0 mm 5 mps 744 mmHg 90%
    07:00 +7°C° 0.1 mm 5 mps 745 mmHg 88%
    08:00 +8°C° 0.1 mm 6 mps 745 mmHg 87%
    09:00 +9°C° 0.1 mm 6 mps 746 mmHg 85%
    10:00 +10°C° 0.2 mm 6 mps 746 mmHg 83%
    11:00 +10°C° 0.2 mm 6 mps 747 mmHg 80%
    12:00 +12°C° 0.2 mm 5 mps 748 mmHg 77%
    13:00 +12°C° 0.2 mm 5 mps 749 mmHg 75%
    14:00 +13°C° 0.2 mm 5 mps 750 mmHg 73%
    15:00 +13°C° 0.2 mm 5 mps 751 mmHg 71%
    16:00 +12°C° 0 mm 5 mps 752 mmHg 74%
    17:00 +10°C° 0 mm 5 mps 752 mmHg 76%
    18:00 +10°C° 0 mm 4 mps 753 mmHg 79%
    19:00 +8°C° 0 mm 5 mps 754 mmHg 82%
    20:00 +7°C° 0 mm 5 mps 754 mmHg 85%
    21:00 +7°C° 0 mm 5 mps 755 mmHg 88%
    22:00 +7°C° 0 mm 5 mps 755 mmHg 86%
    23:00 +7°C° 0 mm 6 mps 756 mmHg 83%

    Day after tomorrow, 22 September, Saturday

    Time Temperature Precipitation Wind Pressure Humidity
    00:00 +7°C° 0 mm 6 mps 756 mmHg 81%
    01:00 +7°C° 0 mm 6 mps 757 mmHg 82%
    02:00 +7°C° 0 mm 6 mps 757 mmHg 82%
    03:00 +7°C° 0 mm 6 mps 757 mmHg 82%
    04:00 +7°C° 0 mm 5 mps 757 mmHg 84%
    05:00 +6°C° 0 mm 5 mps 758 mmHg 86%
    06:00 +6°C° 0 mm 4 mps 758 mmHg 88%
    07:00 +7°C° 0 mm 4 mps 758 mmHg 85%
    08:00 +8°C° 0 mm 4 mps 759 mmHg 81%
    09:00 +10°C° 0 mm 4 mps 759 mmHg 77%
    10:00 +11°C° 0.1 mm 4 mps 759 mmHg 75%
    11:00 +11°C° 0.1 mm 4 mps 759 mmHg 73%
    12:00 +12°C° 0.1 mm 4 mps 759 mmHg 71%
    13:00 +12°C° 0.1 mm 4 mps 759 mmHg 71%
    14:00 +12°C° 0.1 mm 4 mps 759 mmHg 71%
    15:00 +12°C° 0.1 mm 3 mps 759 mmHg 72%
    16:00 +11°C° 0 mm 3 mps 759 mmHg 75%
    17:00 +10°C° 0 mm 2 mps 758 mmHg 78%
    18:00 +10°C° 0 mm 1 mps 758 mmHg 82%
    19:00 +9°C° 0 mm 1 mps 758 mmHg 84%
    20:00 +9°C° 0 mm 1 mps 759 mmHg 85%
    21:00 +8°C° 0 mm 1 mps 759 mmHg 87%
    22:00 +8°C° 0 mm 1 mps 759 mmHg 87%
    23:00 +8°C° 0 mm 1 mps 758 mmHg 88%

    23 September, Sunday

    Time Temperature Precipitation Wind Pressure Humidity
    00:00 +8°C° 0 mm 1 mps 758 mmHg 88%
    01:00 +7°C° 0 mm 2 mps 758 mmHg 87%
    02:00 +7°C° 0 mm 2 mps 758 mmHg 87%
    03:00 +7°C° 0 mm 2 mps 758 mmHg 86%
    04:00 +7°C° 0 mm 3 mps 758 mmHg 85%
    05:00 +7°C° 0 mm 3 mps 758 mmHg 83%
    06:00 +7°C° 0 mm 3 mps 758 mmHg 82%
    07:00 +7°C° 0 mm 3 mps 759 mmHg 79%
    08:00 +7°C° 0 mm 4 mps 759 mmHg 76%
    09:00 +8°C° 0 mm 4 mps 760 mmHg 73%
    10:00 +10°C° 0 mm 4 mps 761 mmHg 67%
    11:00 +10°C° 0 mm 4 mps 761 mmHg 62%
    12:00 +11°C° 0 mm 4 mps 762 mmHg 56%
    13:00 +12°C° 0 mm 4 mps 763 mmHg 56%
    14:00 +12°C° 0 mm 4 mps 764 mmHg 55%
    15:00 +12°C° 0 mm 4 mps 764 mmHg 54%
    16:00 +11°C° 0 mm 4 mps 765 mmHg 59%
    17:00 +10°C° 0 mm 4 mps 766 mmHg 65%
    18:00 +8°C° 0 mm 3 mps 767 mmHg 70%
    19:00 +7°C° 0 mm 3 mps 768 mmHg 74%
    20:00 +7°C° 0 mm 3 mps 769 mmHg 77%
    21:00 +5°C° 0 mm 3 mps 770 mmHg 81%
    22:00 +5°C° 0 mm 3 mps 770 mmHg 83%
    23:00 +5°C° 0 mm 3 mps 770 mmHg 85%

    24 September, Monday

    Time Temperature Precipitation Wind Pressure Humidity
    00:00 +4°C° 0 mm 3 mps 771 mmHg 87%
    01:00 +5°C° 0 mm 3 mps 771 mmHg 86%
    02:00 +5°C° 0 mm 3 mps 771 mmHg 85%
    03:00 +7°C° 0 mm 3 mps 772 mmHg 84%
    04:00 +6°C° 0 mm 4 mps 772 mmHg 84%
    05:00 +6°C° 0 mm 4 mps 772 mmHg 84%
    06:00 +6°C° 0 mm 4 mps 772 mmHg 83%
    07:00 +7°C° 0.1 mm 4 mps 773 mmHg 81%
    08:00 +8°C° 0.1 mm 5 mps 773 mmHg 78%
    09:00 +9°C° 0.1 mm 5 mps 773 mmHg 75%
    10:00 +10°C° 0.1 mm 5 mps 774 mmHg 73%
    11:00 +10°C° 0.1 mm 6 mps 774 mmHg 72%
    12:00 +11°C° 0.1 mm 6 mps 774 mmHg 71%
    13:00 +11°C° 0.1 mm 6 mps 774 mmHg 70%
    14:00 +11°C° 0.1 mm 6 mps 774 mmHg 70%
    15:00 +13°C° 0.1 mm 6 mps 774 mmHg 69%
    16:00 +12°C° 0 mm 5 mps 774 mmHg 74%
    17:00 +10°C° 0 mm 5 mps 775 mmHg 78%
    18:00 +10°C° 0 mm 4 mps 775 mmHg 82%
    19:00 +8°C° 0 mm 4 mps 775 mmHg 85%
    20:00 +7°C° 0 mm 4 mps 775 mmHg 87%
    21:00 +7°C° 0 mm 4 mps 775 mmHg 90%
    22:00 +7°C° 0 mm 4 mps 775 mmHg 90%
    23:00 +7°C° 0 mm 4 mps 775 mmHg 91%

    25 September, Tuesday

    Time Temperature Precipitation Wind Pressure Humidity
    00:00 +7°C° 0 mm 4 mps 775 mmHg 91%
    01:00 +7°C° 0 mm 4 mps 775 mmHg 92%
    02:00 +7°C° 0 mm 4 mps 775 mmHg 92%
    03:00 +7°C° 0 mm 4 mps 774 mmHg 92%
    04:00 +7°C° 0 mm 4 mps 774 mmHg 93%
    05:00 +6°C° 0 mm 4 mps 774 mmHg 93%
    06:00 +6°C° 0 mm 4 mps 774 mmHg 94%
    07:00 +7°C° 0 mm 4 mps 773 mmHg 88%
    08:00 +8°C° 0 mm 5 mps 773 mmHg 82%
    09:00 +10°C° 0 mm 5 mps 773 mmHg 77%
    10:00 +10°C° 0 mm 6 mps 772 mmHg 73%
    11:00 +11°C° 0 mm 6 mps 772 mmHg 69%
    12:00 +12°C° 0 mm 7 mps 772 mmHg 65%
    13:00 +12°C° 0 mm 7 mps 771 mmHg 66%
    14:00 +12°C° 0 mm 7 mps 770 mmHg 66%
    15:00 +12°C° 0 mm 7 mps 769 mmHg 66%
    16:00 +11°C° 0 mm 7 mps 769 mmHg 71%
    17:00 +11°C° 0 mm 6 mps 768 mmHg 76%
    18:00 +10°C° 0 mm 6 mps 768 mmHg 81%
    19:00 +10°C° 0 mm 6 mps 768 mmHg 81%
    20:00 +10°C° 0 mm 7 mps 768 mmHg 81%
    21:00 +11°C° 0 mm 7 mps 767 mmHg 81%
    22:00 +11°C° 0 mm 7 mps 767 mmHg 81%
    23:00 +11°C° 0 mm 7 mps 767 mmHg 81%
    Show more